SL-3 DEB, 8039

Orbit data source: Space-Track

SL-3 DEB, 8039 is space debris in LEO originally from a launch on Fri, 11 Jul 1975 UTC launched from the Plesetsk Missile And Space Complex (PKMTR). Debris objects in space refer to the collection of defunct objects orbiting the Earth. Examples of debris include non-operational satellites, rocket bodies, and fragments generated from explosions, collisions, or faulty payload assembly.

Loading next visibility...
Identifier
8039, 1975-064C
Orbit
LEO
Country
Flag of CISCIS
Related business
Manufacturer
Unknown
Mission
Spacecraft
Bus & Motor
Unknown
Mass
Unknown
Launch date (UTC)
1975-07-11 (51 years ago)
Launch vehicle
Unknown
Launch site
Plesetsk Missile And Space Complex (PKMTR)
Object type
Payload
Rocket body
Debris
Shape & HBR
Unknown shape, 0.1 m
Radar Cross Section
Medium (>0.1 m² and <1 m²)

Expand to show TLE details & history
Last TLE update: 2 days ago

TLE from 2 days ago
0 SL-3 DEB
1 08039U 75064C   26171.16268430  .00000026  00000-0  74153-5 0  9992
2 08039  81.2977  69.2340 0022058 181.3127 178.7990 14.09327029618104
Epoch: 2026-06-20T03:54Z
TLE epoch observation values (Epoch: 2026-06-20T03:54:15.923Z)
Latitude
0.00001°
Longitude
102.28639°
Altitude
880.545 km
Speed
7.404 km/s
True Right ascension
04h 36m 56s
True Declination
0° 00' 00"
Sunlit
Object was in daylight at epoch
Visualization orbit readout
Latitude
Unknown
Longitude
Unknown
Altitude
Unknown
Speed
Unknown
Apparent Right ascension
Unknown
Apparent Declination
Unknown
Sunlit
N/A
Visualization observer readout
Local Sidereal Time
23:07:53
Azimuth
Unknown
Elevation
Unknown
Doppler factor
Unknown
Orbital elements
Apogee altitude
874.811 km
Perigee altitude
842.885 km
Semi-major axis
7,236.985 km
Eccentricity
0.00221
Inclination
81.2977°
RAAN
69.234°
Arg. of periapsis
181.3127°
True anomaly
178.80428°
Mean anomaly
178.799°
Eccentric anomaly
178.80164°
Mean motion
3.52539 °/min
Orbital period
102.12 mins
BSTAR
0.0000074153
Loading maneuver chart data...
Computing Atmospheric mass density...
Loading historical data...
Loading historical data...
Loading historical data...
Loading historical data...
Loading historical data...
Loading historical data...
Loading historical data...
Other satellites on launch #64 in the year 1975 (1975-07-11 UTC)

Documentation

Showing up to 5 results
|